^^
Station Historical Data
 
Daily Summary for January 22, 2020 Units:  Metric    English   Both
Next Day »
Daily Weekly Monthly Yearly Custom
  Current: High: Low: Average:
Temperature: -2.9 °C -2.8 °C -3.5 °C -2.9 °C
Dew Point: -6.0 °C -5.6 °C -6.6 °C -5.9 °C
Humidity: 79% 81% 79% 80%
Wind Speed: 8.0km/h 16.1km/h 4.8km/h 10.9km/h
Wind Gust: 16.1km/h 35.4km/h - -
WindSSW - - SW
Pressure: 1026.1 hPa 1026.1 hPa 1025.6 hPa -
Precipitation: 0.0 mm      
Historical Graphs
 
 
These are the results of the file assigned to $inboxfile in your configuration

Weather Camera

Quebec Radar

This and the area below are optional for those who wish to use them.



This begins the code in the file assigned to $outboxfile in your configuration
 height=
Find more about Weather in Pointe-Claire, CA
Click for weather forecast
Tabular Data for January 22, 2020
Time Temperature Dew Point Pressure Wind Wind Speed Wind Gust Humidity Rainfall Rate (Hourly) solar Conditions
00:00 -3.5 °C -6.6 °C 1026.1 hPa SSW 8.0 km/h 22.5 km/h 79% 0.0 mm 0.00 W/m2 -SN
00:05 -3.4 °C -6.6 °C 1025.9 hPa SSW 9.7 km/h 19.3 km/h 79% 0.0 mm 0.00 W/m2 -SN
00:10 -3.4 °C -6.5 °C 1025.8 hPa SW 11.3 km/h 20.9 km/h 79% 0.0 mm 0.00 W/m2 -SN
00:15 -3.3 °C -6.3 °C 1025.9 hPa SW 16.1 km/h 29.0 km/h 80% 0.0 mm 0.00 W/m2 -SN
00:20 -3.2 °C -6.2 °C 1025.9 hPa SW 11.3 km/h 25.7 km/h 80% 0.0 mm 0.00 W/m2 -SN
00:25 -3.2 °C -6.1 °C 1025.8 hPa SSW 11.3 km/h 25.7 km/h 80% 0.0 mm 0.00 W/m2 -SN
00:30 -3.2 °C -6.1 °C 1025.8 hPa SW 12.9 km/h 24.1 km/h 80% 0.0 mm 0.00 W/m2 -SN
00:35 -3.1 °C -6.1 °C 1025.8 hPa SSW 9.7 km/h 24.1 km/h 80% 0.0 mm 0.00 W/m2 -SN
00:40 -3.1 °C -6.1 °C 1025.6 hPa SSW 12.9 km/h 19.3 km/h 80% 0.0 mm 0.00 W/m2 -SN
00:45 -3.1 °C -6.1 °C 1025.6 hPa SSW 12.9 km/h 24.1 km/h 80% 0.0 mm 0.00 W/m2 -SN
00:50 -3.1 °C -5.9 °C 1025.7 hPa SSW 12.9 km/h 20.9 km/h 81% 0.0 mm 0.00 W/m2 -SN
00:55 -3.1 °C -5.8 °C 1025.6 hPa SSW 12.9 km/h 35.4 km/h 81% 0.0 mm 0.00 W/m2 -SN
01:00 -3.0 °C -5.8 °C 1025.6 hPa SW 11.3 km/h 25.7 km/h 81% 0.0 mm 0.00 W/m2 -SN
01:05 -3.0 °C -5.8 °C 1025.6 hPa SW 16.1 km/h 25.7 km/h 81% 0.0 mm 0.00 W/m2 -SN
01:10 -2.9 °C -5.7 °C 1025.6 hPa SSW 11.3 km/h 22.5 km/h 81% 0.0 mm 0.00 W/m2 -SN
01:15 -2.9 °C -5.7 °C 1025.7 hPa SSW 9.7 km/h 20.9 km/h 81% 0.0 mm 0.00 W/m2 OVC
01:20 -2.9 °C -5.7 °C 1025.6 hPa SW 12.9 km/h 25.7 km/h 81% 0.0 mm 0.00 W/m2 OVC
01:25 -2.9 °C -5.7 °C 1025.6 hPa SW 9.7 km/h 24.1 km/h 81% 0.0 mm 0.00 W/m2 OVC
01:30 -2.9 °C -5.7 °C 1025.7 hPa SW 11.3 km/h 20.9 km/h 81% 0.0 mm 0.00 W/m2 OVC
01:35 -2.9 °C -5.7 °C 1025.7 hPa SW 12.9 km/h 25.7 km/h 81% 0.0 mm 0.00 W/m2 OVC
01:40 -2.8 °C -5.8 °C 1025.7 hPa SW 14.5 km/h 33.8 km/h 80% 0.0 mm 0.00 W/m2 OVC
01:45 -2.8 °C -5.8 °C 1025.7 hPa SW 11.3 km/h 25.7 km/h 80% 0.0 mm 0.00 W/m2 OVC
01:50 -2.8 °C -5.8 °C 1025.8 hPa SW 9.7 km/h 27.4 km/h 80% 0.0 mm 0.00 W/m2 OVC
01:55 -2.8 °C -5.6 °C 1025.8 hPa SW 12.9 km/h 20.9 km/h 81% 0.0 mm 0.00 W/m2 OVC
02:00 -2.8 °C -5.6 °C 1025.8 hPa SSW 16.1 km/h 29.0 km/h 81% 0.0 mm 0.00 W/m2 OVC
02:05 -2.8 °C -5.6 °C 1025.8 hPa SSW 11.3 km/h 24.1 km/h 81% 0.0 mm 0.00 W/m2 OVC
02:10 -2.8 °C -5.6 °C 1025.7 hPa SSW 8.0 km/h 20.9 km/h 81% 0.0 mm 0.00 W/m2 OVC
02:15 -2.8 °C -5.7 °C 1025.6 hPa SSW 14.5 km/h 27.4 km/h 81% 0.0 mm 0.00 W/m2 OVC
02:20 -2.8 °C -5.7 °C 1025.6 hPa SSW 11.3 km/h 24.1 km/h 81% 0.0 mm 0.00 W/m2 OVC
02:25 -2.8 °C -5.6 °C 1025.6 hPa SSW 14.5 km/h 29.0 km/h 81% 0.0 mm 0.00 W/m2 OVC
02:30 -2.8 °C -5.6 °C 1025.6 hPa SSW 14.5 km/h 25.7 km/h 81% 0.0 mm 0.00 W/m2 OVC
02:35 -2.8 °C -5.7 °C 1025.6 hPa SW 14.5 km/h 29.0 km/h 81% 0.0 mm 0.00 W/m2 OVC
02:40 -2.8 °C -5.6 °C 1025.7 hPa SW 11.3 km/h 32.2 km/h 81% 0.0 mm 0.00 W/m2 OVC
02:45 -2.8 °C -5.7 °C 1025.7 hPa SW 11.3 km/h 20.9 km/h 81% 0.0 mm 0.00 W/m2 OVC
02:50 -2.8 °C -5.7 °C 1025.7 hPa SW 11.3 km/h 22.5 km/h 81% 0.0 mm 0.00 W/m2 OVC
02:55 -2.8 °C -5.8 °C 1025.7 hPa SW 9.7 km/h 24.1 km/h 80% 0.0 mm 0.00 W/m2 OVC
03:00 -2.8 °C -5.8 °C 1025.7 hPa SW 12.9 km/h 24.1 km/h 80% 0.0 mm 0.00 W/m2 OVC
03:05 -2.8 °C -5.8 °C 1025.8 hPa SW 8.0 km/h 20.9 km/h 80% 0.0 mm 0.00 W/m2 OVC
03:10 -2.8 °C -5.8 °C 1025.9 hPa SSW 8.0 km/h 19.3 km/h 80% 0.0 mm 0.00 W/m2 OVC
03:15 -2.8 °C -5.8 °C 1025.9 hPa SSW 8.0 km/h 19.3 km/h 80% 0.0 mm 0.00 W/m2 OVC
03:20 -2.8 °C -5.8 °C 1026.0 hPa SSW 11.3 km/h 19.3 km/h 80% 0.0 mm 0.00 W/m2 OVC
03:25 -2.8 °C -5.8 °C 1026.0 hPa SSW 9.7 km/h 20.9 km/h 80% 0.0 mm 0.00 W/m2 OVC
03:30 -2.8 °C -5.8 °C 1026.0 hPa SW 8.0 km/h 16.1 km/h 80% 0.0 mm 0.00 W/m2 OVC
03:35 -2.8 °C -5.8 °C 1026.0 hPa SW 8.0 km/h 14.5 km/h 80% 0.0 mm 0.00 W/m2 OVC
03:40 -2.8 °C -5.8 °C 1025.9 hPa SW 4.8 km/h 12.9 km/h 80% 0.0 mm 0.00 W/m2 OVC
03:45 -2.8 °C -5.9 °C 1026.0 hPa SW 8.0 km/h 19.3 km/h 79% 0.0 mm 0.00 W/m2 OVC
03:50 -2.8 °C -5.9 °C 1026.0 hPa SW 12.9 km/h 22.5 km/h 79% 0.0 mm 0.00 W/m2 OVC
03:55 -2.8 °C -5.8 °C 1026.0 hPa SSW 8.0 km/h 16.1 km/h 80% 0.0 mm 0.00 W/m2 OVC
04:00 -2.8 °C -5.9 °C 1026.1 hPa SW 8.0 km/h 22.5 km/h 79% 0.0 mm 0.00 W/m2 OVC
04:05 -2.8 °C -5.9 °C 1026.0 hPa SW 9.7 km/h 16.1 km/h 79% 0.0 mm 0.00 W/m2 OVC
04:10 -2.8 °C -5.9 °C 1025.9 hPa SW 8.0 km/h 14.5 km/h 79% 0.0 mm 0.00 W/m2 OVC
04:15 -2.8 °C -5.9 °C 1026.0 hPa SW 8.0 km/h 22.5 km/h 79% 0.0 mm 0.00 W/m2 OVC
04:20 -2.8 °C -5.9 °C 1026.0 hPa SW 9.7 km/h 19.3 km/h 79% 0.0 mm 0.00 W/m2 OVC
04:25 -2.8 °C -6.0 °C 1026.0 hPa SW 9.7 km/h 19.3 km/h 79% 0.0 mm 0.00 W/m2 OVC
04:30 -2.8 °C -6.0 °C 1026.0 hPa SW 9.7 km/h 19.3 km/h 79% 0.0 mm 0.00 W/m2 OVC
04:35 -2.8 °C -6.0 °C 1026.0 hPa SSW 9.7 km/h 14.5 km/h 79% 0.0 mm 0.00 W/m2 OVC
04:40 -2.9 °C -6.0 °C 1026.1 hPa SSW 8.0 km/h 16.1 km/h 79% 0.0 mm 0.00 W/m2 OVC
Pointe-Claire Weather